GEFSSE_con_cape1000_252.txt.gz
Probability
13 26 68 68 68 68 61 55 48 45 48 39 39 35 35 32 35 32 32 29 35 32 32 32 32 19 19 23 19 23 19 13 10 13 16 13 13 6 3 3 3 3 6
16 35 68 68 68 58 55 55 48 45 45 45 42 42 32 29 29 29 32 29 23 23 26 29 26 26 19 19 13 13 16 13 6 6 6 6 3 3 3 6 6 0 3
13 35 52 61 61 61 58 58 55 45 45 45 42 39 32 29 29 29 23 19 23 23 26 26 19 16 13 10 10 10 10 6 0 0 0 0 0 3 3 3 6 3 3
26 39 42 58 61 61 58 55 52 48 45 42 35 35 32 32 32 23 23 19 19 19 19 16 13 13 13 10 6 6 3 3 0 0 0 0 0 3 0 0 3 3 0
29 39 45 55 52 58 52 52 48 42 42 42 39 39 35 39 32 19 19 16 16 13 13 10 10 6 10 10 3 3 6 0 0 0 0 0 0 3 0 0 0 0 0
29 39 45 52 52 52 48 48 45 39 39 35 35 35 35 39 29 19 13 16 13 13 10 10 10 6 3 3 0 0 0 0 0 0 0 0 0 0 0 3 3 0 0
32 39 45 55 48 48 48 45 45 42 35 35 35 35 39 32 26 19 16 13 13 13 6 3 3 6 6 3 0 0 0 0 0 0 0 0 0 0 0 0 0 3 3
35 42 45 52 52 48 48 48 48 42 39 32 32 32 29 26 19 16 13 13 10 3 3 3 3 0 3 0 0 0 0 0 0 0 0 0 0 0 0 0 0 0 0
42 45 42 42 42 48 48 45 45 35 35 35 35 35 32 26 19 19 19 10 6 3 3 3 0 0 0 0 0 0 0 0 0 0 0 0 0 0 0 0 3 0 0
42 42 42 39 42 42 39 35 35 35 35 39 35 26 23 16 16 13 6 6 3 3 3 3 0 0 0 0 0 0 0 0 0 0 0 0 0 0 0 0 3 0 0
35 39 35 39 35 35 35 32 32 32 29 26 19 10 3 3 3 3 3 3 3 3 3 3 0 0 0 0 0 0 0 0 0 0 0 0 0 3 3 0 0 0 0
26 35 29 32 26 26 29 19 13 16 10 6 3 3 3 0 0 0 0 0 0 0 0 0 0 0 0 0 0 0 0 0 0 0 0 0 0 3 3 0 0 0 0
23 26 23 23 16 23 16 10 10 6 3 3 3 3 3 0 0 0 0 0 0 0 0 0 0 0 0 0 0 0 0 0 0 0 0 0 0 3 0 0 0 0 0
19 19 16 16 16 13 10 10 6 3 0 0 0 0 0 0 0 0 0 0 0 0 0 0 0 0 0 0 0 0 0 0 0 0 0 0 0 0 0 0 0 0 0
16 16 16 16 13 6 6 6 6 0 0 0 0 0 0 0 0 0 0 0 0 0 0 0 0 0 0 0 0 0 0 0 0 0 0 0 0 0 0 0 0 0 0
16 16 16 13 6 3 3 3 0 0 0 0 0 0 0 0 0 0 0 0 0 0 0 0 0 0 0 0 0 0 0 0 0 0 0 0 0 0 0 0 0 0 0
13 16 16 10 3 3 0 0 0 0 0 0 0 0 0 0 0 0 0 0 0 0 0 0 0 0 0 0 0 0 0 0 0 0 0 0 0 0 0 0 0 0 0
13 13 10 6 6 0 0 0 0 0 0 0 0 0 0 0 0 0 0 0 0 0 0 0 0 0 0 0 0 0 0 0 0 0 0 0 0 0 0 0 0 0 0
10 3 6 3 3 0 0 0 0 0 0 0 0 0 0 0 0 0 0 0 0 0 0 0 0 0 0 0 0 0 0 0 0 0 0 0 0 0 0 0 0 0 0
3 6 6 0 0 0 0 0 0 0 0 0 0 0 0 0 0 0 0 0 0 0 0 0 0 0 0 0 0 0 0 0 0 0 0 0 0 0 0 0 0 0 0
6 3 3 3 0 0 0 0 0 0 0 0 0 0 0 0 0 0 0 0 0 0 0 0 0 0 0 0 0 0 0 0 0 0 0 0 0 0 0 0 0 0 0
3 6 6 3 3 0 0 0 0 0 0 0 0 0 0 0 0 0 0 0 0 0 0 0 0 0 0 0 0 0 0 0 0 0 0 0 0 0 0 0 0 0 0
3 3 3 3 3 3 0 0 0 0 0 0 0 0 0 0 0 0 0 0 0 0 0 0 0 0 0 0 0 0 0 0 0 0 0 0 0 0 0 0 0 0 0
3 3 3 3 3 3 0 0 0 0 0 0 0 0 0 0 0 0 0 0 0 0 0 0 0 0 0 0 0 0 0 0 0 0 0 0 0 0 0 0 0 0 0
3 3 3 3 3 0 0 0 0 0 0 0 0 0 0 0 0 0 0 0 0 0 0 0 0 0 0 0 0 0 0 0 0 0 0 0 0 0 0 0 0 0 0
3 3 3 3 0 0 0 0 0 0 0 0 0 0 0 0 0 0 0 0 0 0 0 0 0 0 0 0 0 0 0 0 0 0 0 0 0 0 0 0 0 0 0

GEFSSE_con_cape1000_258.txt.gz
Probability
42 61 71 74 65 61 58 61 61 55 55 52 48 45 42 42 35 35 35 32 32 32 29 29 23 19 16 16 16 16 6 10 10 10 10 6 3 3 0 3 0 0 0
42 58 68 71 61 55 58 61 61 55 48 45 45 42 42 35 32 35 32 29 29 29 26 26 23 19 26 23 19 19 10 10 10 10 10 6 6 3 0 0 3 3 0
42 58 61 74 58 58 58 61 61 55 55 48 42 39 32 32 35 32 29 29 29 29 26 26 23 23 26 23 16 16 10 6 3 3 3 3 3 3 0 3 3 3 0
42 55 52 58 61 55 55 55 55 55 52 45 32 32 32 32 32 32 29 29 26 29 26 26 23 10 13 16 16 13 10 3 0 0 0 0 0 0 0 3 3 3 3
48 45 48 58 55 55 55 52 52 48 45 42 39 32 35 32 32 32 26 26 26 26 26 19 13 10 10 10 10 6 0 0 0 0 0 0 0 0 0 0 3 3 3
42 45 55 61 58 55 55 48 45 42 42 39 39 45 35 32 26 19 23 23 23 16 16 13 10 10 6 6 6 3 0 0 0 0 0 0 0 0 0 3 6 3 3
35 42 52 61 58 55 52 52 45 45 42 39 42 45 35 26 23 19 19 19 16 13 10 13 6 3 3 3 3 0 0 0 0 0 0 0 0 0 0 3 3 0 3
32 39 48 58 58 55 52 52 48 48 45 45 45 39 32 26 19 19 23 13 10 10 13 10 6 3 3 3 3 0 0 0 0 0 0 3 0 0 0 0 0 0 0
35 45 45 52 48 52 52 48 48 45 45 42 42 42 32 32 23 23 13 13 10 13 10 6 3 0 0 0 0 0 0 0 0 0 0 0 0 0 0 0 0 0 0
35 42 45 42 42 48 45 45 45 35 35 32 32 26 19 19 19 16 13 13 10 3 0 3 0 0 3 0 0 0 0 0 0 0 0 0 0 0 3 0 0 0 0
35 35 39 35 39 39 42 29 29 29 26 26 29 10 10 16 16 10 3 3 3 3 0 0 0 0 0 0 0 0 0 0 0 0 0 0 0 0 3 3 3 0 0
35 39 32 32 29 35 29 29 32 29 26 29 29 13 16 13 10 3 0 0 3 0 0 0 0 0 0 0 0 0 0 0 0 0 0 0 0 0 0 3 0 0 0
32 32 32 29 26 26 29 29 23 23 23 19 19 16 13 3 3 3 0 0 0 0 0 0 0 0 0 0 0 0 0 0 0 0 0 0 0 0 0 0 0 0 0
29 29 32 26 26 23 23 19 23 23 23 13 13 13 6 3 3 0 0 0 3 0 0 0 0 0 0 0 0 0 0 0 0 0 0 0 0 0 0 0 0 0 0
29 29 29 26 23 23 19 16 16 19 16 16 13 6 6 6 0 0 0 0 0 0 0 0 0 0 0 0 0 0 0 0 0 0 0 0 0 0 0 0 3 0 0
26 29 26 23 23 23 19 19 10 10 13 6 6 6 6 3 0 0 0 0 0 0 0 0 0 0 0 0 0 0 0 0 0 0 0 0 0 0 0 0 0 0 0
23 23 19 19 23 19 13 16 16 10 10 3 3 3 3 3 3 0 0 0 0 0 0 0 0 0 0 0 0 0 0 0 0 0 0 0 0 0 0 0 0 0 0
16 19 13 16 19 19 16 10 6 3 3 3 0 0 0 3 3 0 0 0 0 0 0 0 0 0 0 0 0 0 0 0 0 0 0 0 0 0 0 0 0 0 0
13 13 13 16 16 16 13 10 6 0 0 0 0 0 0 0 0 0 0 0 0 0 0 0 0 0 0 0 0 0 0 0 0 0 0 0 0 0 0 0 0 0 0
6 13 13 10 10 10 10 0 3 3 0 0 0 0 0 0 0 0 0 0 0 0 0 0 0 0 0 0 0 0 0 0 0 0 0 0 0 0 0 0 0 0 0
0 6 6 3 10 6 6 3 3 3 0 0 0 0 0 0 0 0 0 0 0 0 0 0 0 0 0 0 0 0 0 0 0 0 0 0 0 0 0 0 0 0 0
0 3 3 0 0 0 3 3 3 3 0 0 0 0 0 0 0 0 0 0 0 0 0 0 0 0 0 0 0 0 0 0 0 0 0 0 0 0 0 0 0 0 0
0 0 0 0 0 0 0 0 0 0 0 0 0 0 0 0 0 0 0 0 0 0 0 0 0 0 0 0 0 0 0 0 0 0 0 0 0 0 0 0 0 0 0
0 0 0 3 0 0 0 0 0 0 0 0 0 0 0 0 0 0 0 0 0 0 0 0 0 0 0 0 0 0 0 0 0 0 0 0 0 0 0 0 0 0 0
0 0 0 3 0 0 0 0 0 0 0 0 0 0 0 0 0 0 0 0 0 0 0 0 0 0 0 0 0 0 0 0 0 0 0 0 0 0 0 0 0 0 0
0 0 3 3 0 0 0 0 0 0 0 0 0 0 0 0 0 0 0 0 0 0 0 0 0 0 0 0 0 0 0 0 0 0 0 0 0 0 0 0 0 0 0

GEFSSE_con_cape1000_264.txt.gz
Probability
48 58 68 77 74 74 68 65 58 58 45 45 48 48 45 45 45 45 45 32 32 32 35 29 19 19 19 10 13 16 13 13 10 10 6 3 3 0 0 0 0 3 3
52 55 71 71 68 65 68 65 58 52 48 48 48 45 45 42 42 42 35 32 32 29 29 23 23 19 19 13 13 16 10 10 10 10 10 3 3 3 0 0 0 0 3
52 55 71 74 68 61 58 55 55 55 52 48 45 45 42 42 39 35 32 32 29 26 23 23 23 23 19 19 13 10 6 10 10 10 6 3 0 3 0 0 0 0 0
48 52 52 71 65 61 58 52 48 52 48 39 39 42 42 35 35 35 32 32 26 26 19 23 23 26 13 13 13 6 6 6 6 3 0 0 0 0 0 0 0 0 0
45 39 55 71 65 65 58 52 48 42 42 39 39 39 39 35 32 29 29 29 23 19 19 23 16 16 19 16 13 6 6 6 3 3 0 0 0 0 0 0 3 0 0
42 35 55 65 65 58 55 45 45 42 39 39 39 42 42 29 29 26 26 19 19 19 16 16 10 10 10 10 10 3 3 3 3 0 0 0 0 3 0 6 6 6 6
42 39 45 58 55 55 48 45 45 42 45 52 45 39 32 32 29 23 23 19 16 19 13 10 10 10 10 6 6 3 3 0 0 0 0 0 0 0 0 0 6 6 6
39 39 45 58 55 48 52 45 48 48 45 45 45 32 29 29 29 23 19 16 13 16 13 6 6 6 6 6 3 3 0 0 0 0 0 0 0 3 0 0 6 3 3
32 26 23 35 48 52 45 48 48 48 48 48 39 35 32 32 32 19 16 13 16 13 13 6 6 6 6 6 3 0 0 0 0 0 0 0 0 0 0 6 3 0 0
29 26 26 23 26 29 32 42 45 45 39 42 35 23 23 19 19 13 10 10 16 13 10 6 6 6 3 0 0 0 0 0 0 0 0 0 3 3 3 0 3 3 3
29 26 23 23 19 23 26 23 23 26 23 23 13 6 6 10 10 10 10 6 6 10 10 6 6 3 0 0 0 0 0 0 0 0 0 0 0 0 0 0 0 3 0
32 26 23 26 16 16 19 16 19 16 6 10 10 6 6 6 6 6 6 6 6 6 6 3 0 0 0 0 0 0 0 0 0 0 0 0 0 0 0 0 0 0 0
29 32 26 23 19 10 13 13 10 10 10 10 6 6 6 6 3 3 3 0 0 0 0 0 0 0 0 0 0 0 0 0 0 0 0 0 0 0 0 0 0 0 0
26 29 23 26 16 13 10 6 13 6 6 3 3 6 6 6 3 0 0 0 0 0 0 0 0 0 0 0 0 0 0 0 0 0 0 0 0 0 0 0 0 0 0
19 26 29 23 10 13 6 6 13 6 3 3 3 3 3 3 0 0 0 0 0 0 0 0 0 0 0 0 0 0 0 0 0 0 0 0 0 0 0 0 0 0 0
16 16 23 19 13 13 10 6 10 6 3 3 3 3 3 0 0 0 0 0 0 0 0 0 0 0 0 0 0 0 0 0 0 0 0 0 0 0 0 0 0 0 0
13 13 16 10 6 10 6 3 6 6 3 3 3 3 0 0 0 0 0 0 0 0 0 0 0 0 0 0 0 0 0 0 0 0 0 0 0 0 0 0 0 0 3
6 10 0 6 3 3 3 3 3 3 3 3 3 3 0 0 0 0 0 0 0 0 0 0 0 0 0 0 0 0 0 0 0 0 0 0 0 0 0 0 0 0 0
0 0 0 0 0 0 0 3 3 3 3 3 3 0 0 0 0 0 0 0 0 0 0 0 0 0 0 0 0 0 0 0 0 0 0 0 0 0 0 0 0 0 0
0 0 0 0 0 0 0 3 3 6 3 0 0 0 0 0 0 0 0 0 0 0 0 0 0 0 0 0 0 0 0 0 0 0 0 0 0 0 0 0 0 0 0
0 0 0 0 0 0 0 0 0 0 0 0 0 0 0 0 0 0 0 0 0 0 0 0 0 0 0 0 0 0 0 0 0 0 0 0 0 0 0 0 0 0 0
0 0 0 0 0 0 0 0 0 0 0 0 0 0 0 0 0 0 0 0 0 0 0 0 0 0 0 0 0 0 0 0 0 0 0 0 0 0 0 0 0 0 0
0 0 0 0 0 0 0 0 0 0 0 0 0 0 0 0 0 0 0 0 0 0 0 0 0 0 0 0 0 0 0 0 0 0 0 0 0 0 0 0 0 0 0
0 0 0 0 0 0 0 0 0 0 0 0 0 0 0 0 0 0 0 0 0 0 0 0 0 0 0 0 0 0 0 0 0 0 0 0 0 0 0 0 0 0 0
0 0 0 0 0 0 0 0 0 0 0 0 0 0 0 0 0 0 0 0 0 0 0 0 0 0 0 0 0 0 0 0 0 0 0 0 0 0 0 0 0 0 0
0 0 0 0 0 0 0 0 0 0 0 0 0 0 0 0 0 0 0 0 0 0 0 0 0 0 0 0 0 0 0 0 0 0 0 0 0 0 0 0 0 0 0

GEFSSE_con_cape1000_270.txt.gz
Probability
23 55 74 71 71 71 61 58 55 52 52 48 45 42 42 45 48 48 42 39 42 35 35 29 29 26 19 16 16 16 16 16 10 10 10 6 3 3 0 0 0 0 0
29 55 71 71 71 71 55 55 52 52 48 48 48 42 42 42 45 45 42 39 35 35 29 26 26 23 19 13 16 16 13 10 10 10 6 3 6 0 0 0 0 0 0
39 55 68 71 71 65 58 52 52 45 45 42 42 39 39 39 39 42 39 35 32 29 26 26 23 23 16 13 16 13 13 10 6 6 6 0 0 6 6 0 0 3 3
39 55 61 68 68 61 58 52 52 42 45 39 42 39 39 39 39 39 32 29 26 26 26 23 23 16 13 6 6 10 6 10 6 6 3 0 0 6 6 6 3 3 3
45 48 61 65 61 58 55 45 45 45 42 39 42 39 39 35 32 29 29 26 23 23 19 19 16 10 10 6 6 3 3 6 6 3 0 0 0 3 6 6 6 6 0
39 42 61 65 61 55 52 45 42 48 42 42 42 45 35 32 32 29 23 16 19 16 13 13 13 10 10 10 3 3 3 3 3 0 0 0 0 3 6 6 6 6 6
29 45 55 58 61 55 52 42 52 52 45 45 45 45 32 29 26 23 19 16 13 10 13 6 10 10 6 6 3 3 3 3 0 0 0 0 0 3 6 6 6 6 6
32 35 48 58 55 55 55 55 48 45 52 48 45 39 35 29 23 16 13 16 16 10 6 6 6 6 6 6 3 3 3 0 0 0 0 0 0 3 6 6 6 6 3
26 29 39 42 45 52 52 52 45 45 45 52 45 42 35 32 19 13 16 16 16 10 6 6 6 6 6 6 3 3 3 0 0 0 0 0 3 3 3 6 6 6 3
23 26 26 23 26 26 32 32 39 35 39 42 35 19 16 19 13 13 3 6 6 6 6 6 6 6 6 3 3 3 0 0 0 0 0 0 3 3 3 3 3 3 3
16 19 16 16 19 16 19 23 23 23 23 23 13 10 6 6 6 3 3 3 6 6 6 6 6 6 3 3 3 3 0 0 0 0 0 0 3 3 3 3 3 3 3
13 6 10 13 16 13 13 13 6 6 6 10 6 3 6 3 6 3 3 3 3 6 6 6 6 3 3 3 3 0 0 0 0 0 0 0 3 3 3 3 0 0 3
10 6 6 6 6 10 10 6 6 6 3 3 3 3 3 3 3 3 3 3 3 3 3 3 3 3 0 0 0 0 0 0 0 0 0 0 3 3 3 3 0 0 3
10 6 3 3 6 6 3 6 3 3 0 0 0 3 3 3 3 3 3 3 3 0 3 3 0 0 0 0 0 0 0 0 0 0 0 0 3 3 3 0 0 3 3
6 6 3 3 3 3 3 3 3 0 0 0 0 0 0 3 3 3 3 3 0 0 0 0 0 0 0 0 0 0 0 0 0 0 0 0 0 3 0 0 0 0 0
3 3 3 3 0 0 3 3 0 0 0 0 0 0 0 3 3 3 3 0 0 0 0 0 0 0 0 0 0 0 0 0 0 0 0 0 0 0 0 0 0 0 0
3 0 3 3 0 0 0 0 0 0 0 0 0 0 0 0 3 3 0 0 0 0 0 0 0 0 0 0 0 0 0 0 0 0 0 0 0 0 0 0 0 0 0
0 3 3 3 0 0 0 0 0 0 0 0 0 0 0 0 3 0 0 0 0 0 0 0 0 0 0 0 0 0 0 0 0 0 0 0 0 0 0 0 0 0 0
0 0 0 3 0 0 0 0 0 0 0 0 0 0 0 0 0 0 0 0 0 0 0 0 0 0 0 0 0 0 0 0 0 0 0 0 0 0 0 0 0 0 0
0 0 0 0 0 0 0 0 0 0 0 0 0 0 0 0 0 0 0 0 0 0 0 0 0 0 0 0 0 0 0 0 0 0 0 0 0 0 0 0 0 0 0
0 0 0 0 0 0 0 0 0 0 0 0 0 0 0 0 0 0 0 0 0 0 0 0 0 0 0 0 0 0 0 0 0 0 0 0 0 0 0 0 0 0 0
0 0 0 0 0 0 0 0 0 0 0 0 0 0 0 0 0 0 0 0 0 0 0 0 0 0 0 0 0 0 0 0 0 0 0 0 0 0 0 0 0 0 0
0 0 0 0 0 0 0 0 0 0 0 0 0 0 0 0 0 0 0 0 0 0 0 0 0 0 0 0 0 0 0 0 0 0 0 0 0 0 0 0 0 0 0
0 0 0 0 0 0 0 0 0 0 0 0 0 0 0 0 0 0 0 0 0 0 0 0 0 0 0 0 0 0 0 0 0 0 0 0 0 0 0 0 0 0 0
0 0 0 0 0 0 0 0 0 0 0 0 0 0 0 0 0 0 0 0 0 0 0 0 0 0 0 0 0 0 0 0 0 0 0 0 0 0 0 0 0 0 0
0 0 0 0 0 0 0 0 0 0 0 0 0 0 0 0 0 0 0 0 0 0 0 0 0 0 0 0 0 0 0 0 0 0 0 0 0 0 0 0 0 0 0